Flag for Canada Weather past 2 weeks in Eureka, Nunavut Territory, Canada

Now
37 °F

Partly sunny.


Feels Like: 34 °F
Forecast: 40 / 47 °F
Wind: 5 mph from South

Location: Eureka

Current Time: Jul 29, 2014 at 8:10:12 PM

Latest Report: Jul 29, 2014 at 7:00 PM


Visibility: 15 mi

Pressure: 30.14 "Hg

Humidity: 81%

Dew point: 32 °F

Location of EurekaLocation

Historic Weather in Eureka — Graph

°F

Eureka temperature yesterday

Maximum temperature yesterday: 41 °F (at 12:00 PM)
Minimum temperature yesterday: 36 °F (at 1:00 AM)
Average temperature yesterday: 38 °F

Past Weeks' High & Low Weather Summary

 TemperatureHumidityPressure
High55 °F (Jul 18, 5:00 PM)87% (Jul 17, 8:00 AM)30.13 "Hg (Jul 17, 8:00 AM)
Low36 °F (Jul 18, 1:00 AM)44% (Jul 15, 7:00 PM)29.52 "Hg (Jul 22, 10:00 PM)
Average42 °F71%29.76 "Hg
* Reported Jul 14 6:00 PM — Jul 29 6:00 PM, Eureka, Weather by CustomWeather, © 2014

Note: Actual official high and low records may vary slightly from our data, if they occured in-between our weather recording intervals... More about our weather records

Advertising

Eureka weather history for previous 24 hours

 ConditionsComfort  
Time TempWeatherWind HumidityBarometerVisibility
6:00 PM
Jul 29
39 °FOvercast.3 mph81%30.13 "Hg15 mi
5:00 PM41 °FOvercast.2 mph76%30.13 "Hg15 mi
4:00 PM43 °FPartly sunny.2 mph71%30.12 "Hg15 mi
3:00 PM43 °FPartly sunny.8 mph71%30.12 "Hg15 mi
2:00 PM41 °FPartly sunny.7 mph70%30.11 "Hg15 mi
1:00 PM41 °FBroken clouds.7 mph70%30.11 "Hg15 mi
12:00 PM41 °FPartly sunny.7 mph76%30.10 "Hg15 mi
11:00 AM43 °FCloudy.10 mph71%30.10 "Hg15 mi
10:00 AM41 °FPartly sunny.12 mph76%30.09 "Hg15 mi
9:00 AM39 °FMostly cloudy.9 mph75%30.09 "Hg15 mi
8:00 AM37 °FMostly cloudy.12 mph81%30.09 "Hg15 mi
7:00 AM39 °FBroken clouds.5 mph81%30.08 "Hg15 mi
6:00 AM36 °FMostly cloudy.5 mph87%30.07 "Hg15 mi
5:00 AM37 °FPartly sunny.9 mph81%30.06 "Hg15 mi
4:00 AM37 °FMostly cloudy.6 mph81%30.05 "Hg15 mi
3:00 AM37 °FMostly cloudy.6 mph81%30.04 "Hg15 mi
2:00 AM37 °FMore clouds than sun.3 mph81%30.03 "Hg15 mi
1:00 AM37 °FCloudy.3 mph75%30.02 "Hg15 mi
10:00 PM
Jul 28
37 °FBroken clouds.3 mph75%29.98 "Hg15 mi
9:00 PM37 °FPartly sunny.5 mph75%29.97 "Hg15 mi
8:00 PM37 °FPartly sunny.No wind75%29.96 "Hg15 mi
Weather by CustomWeather, © 2014

See weather overviewHow to use our weather pages